Location: Dackenheim
(49.5215°N, 8.1854°E)
Time: 22:50:59
(UTC+00:00)

BlueWalker 3 - Pass Details

Date: 29 January 2026
Orbit: 450 x 461 km, 53.2° (Epoch: 11 February)

Event Time Altitude Azimuth Distance (km) Brightness Sun altitude
Rises 19:05:36 0° 287° (WNW) 2,459 6.6 -27.2°
Reaches altitude 10° 19:07:47 10° 293° (WNW) 1,585 5.3 -27.5°
Enters shadow 19:09:18 23° 303° (WNW) 1,019 4.0 -27.8°
